Regional Weather Roundup
Issued by NWS

Home | Current Version | Previous Version | Text Only | Print | Product List | Glossary On
Versions: 1 2 3 4 5 6 7 8 9 10 11 12 13 14 15 16 17 18 19 20 21 22 23 24 25 26 27 28 29 30 31 32 33 34 35 36 37 38 39 40 41 42 43 44 45 46 47 48 49 50
231
ASUS43 KTOP 281908
RWRKS

WEATHER ROUNDUP FOR KANSAS
NATIONAL WEATHER SERVICE GOODLAND KS
200 PM CDT TUE MAR 28 2017

NOTE:  "FAIR" INDICATES FEW OR NO CLOUDS BELOW 12,000 FEET WITH NO
SIGNIFICANT WEATHER AND/OR OBSTRUCTIONS TO VISIBILITY.

KSZ001>006-013>018-027>032-041>047-282000-
NORTHWEST KANSAS

CITY           SKY/WX    TMP DP  RH WIND       PRES   REMARKS
GOODLAND       RAIN      45  45 100 SE16      29.90F FOG
HAYS             N/A     52  43  71 E17       29.95F
HILL CITY      LGT RAIN  50  46  86 E9        29.97S
RUSSELL        PTSUNNY   55  42  61 E20       29.93F
$$

KSZ061>065-074>080-084>089-282000-
SOUTHWEST KANSAS

CITY           SKY/WX    TMP DP  RH WIND       PRES   REMARKS
DODGE CITY     RAIN      46  45  96 NE12      29.91F FOG
ELKHART          N/A     44  38  79 NE12        N/A
GARDEN CITY    TSTM      45  44  97 E14       29.91F FOG
GREAT BEND     CLOUDY    54  44  69 E15       29.93F
LIBERAL        CLOUDY    46  41  81 NE17G23   29.88F THUNDER
PRATT          CLOUDY    51  41  67 E16G22    29.91F
$$

KSZ066>073-081>083-090>101-282000-
SOUTHEAST KANSAS

CITY           SKY/WX    TMP DP  RH WIND       PRES   REMARKS
CHANUTE        CLOUDY    56  48  74 E12       29.99F
COFFEYVILLE    CLOUDY    57  49  74 E14       29.96F
MEDICINE LODGE   N/A     51  45  79 E17       29.90F
NEWTON         CLOUDY    51  46  83 E15       29.98S
PARSONS        CLOUDY    55  48  77 VRB5      29.99F
WICHITA INTL   CLOUDY    53  47  79 E16       29.95F
WICHITA JABRA  CLOUDY    52  47  83 E14       29.96F
WICHITA MCCONL CLOUDY    53  46  78 E12       29.94F
WINFIELD       CLOUDY    55  47  74 E17       29.94F
$$

KSZ007>012-019>026-033>040-048>060-102>105-282000-
NORTHEAST KANSAS

CITY           SKY/WX    TMP DP  RH WIND       PRES   REMARKS
CONCORDIA      PTSUNNY   54  43  66 E13       30.01R
EMPORIA        CLOUDY    53  48  83 E13       29.99F
LAWRENCE       CLOUDY    55  50  83 NE8       30.03F
MANHATTAN      CLOUDY    56  44  64 NE14G20   30.01S
MARYSVILLE     CLOUDY    54  43  66 E12G20    30.02F
OLATHE IND     CLOUDY    54  48  80 NE8       30.03F
OLATHE EXE     CLOUDY    52  49  89 E10       30.03F
SALINA         CLOUDY    57  44  62 E14       30.00R
TOPEKA BILLARD CLOUDY    55  50  83 NE12      30.02F
TOPEKA FORBES  CLOUDY    56  49  77 E12       30.01F
$$




USA.gov is the U.S. government's official web portal to all federal, state and local government web resources and services.